TURKSAT 3A

Last updated on Tue Sep 22 2026 00:03:11 GMT+0000 (Coordinated Universal Time)

1 33056U 08030B 26264.49739072 .00000142 00000+0 00000+0 0 9994 2 33056 0.0476 80.8635 0004296 81.2538 59.3246 1.00270591 53321
UTC large
Height (km)
Speed (km/s)
/
Latitude / Longitude
Inclination (degrees)
Orbital Period (minutes)
Azimuth
Elevation
Range (km)
Doppler Factor

Next 0 passes for location: London (51.5072 / 0.1276)

No passes found over London.
TURKSAT 3A